Tracking 18942 objects as of 17-Jan-2018
HD Live streaming from Space Station
objects crossing your sky now

FENGYUN 1C DEB

Track FENGYUN 1C DEB now!
10-day predictions


NORAD ID: 30686
Int'l Code: 1999-025AQU
Perigee: 588.9 km
Apogee: 877.5 km
Inclination: 99.0 °
Period: 99.3 minutes
Semi major axis: 7104 km
RCS: 0.0215 m2 (small)
Launch date: May 10, 1999
Source: People's Republic of China (PRC)
Launch site: Taiyaun Space Center, China (TSC)

Note: This is SATELLITE DEBRIS
aabbcc
Your satellite tracking list
Your tracking list is empty




NASA's NSSDC Master Catalog

Two Line Element Set (TLE):
1 30686U 99025AQU 18016.31532892  .00000259  00000-0  64371-4 0  9998
2 30686  98.9803 304.9759 0203119 211.3283 277.6124 14.49880722576636
Source of the keplerian elements: AFSPC